TimeCET,TemperatureF,Dew PointF,Humidity,Sea Level PressureIn,VisibilityMPH,Wind Direction,Wind SpeedMPH,Gust SpeedMPH,PrecipitationIn,Events,Conditions,WindDirDegrees,DateUTC
12:00 AM,32.0,32.0,100,30.04,0.9,ESE,4.6,-,N/A,,Overcast,110,2012-11-16 23:00:00
1:00 AM,32.0,32.0,100,30.04,0.9,ESE,4.6,-,N/A,,Overcast,110,2012-11-17 00:00:00
2:00 AM,33.8,32.0,93,30.01,0.9,Variable,2.3,-,N/A,,Overcast,0,2012-11-17 01:00:00
3:00 AM,33.8,32.0,93,30.01,0.9,Variable,2.3,-,N/A,,Overcast,0,2012-11-17 02:00:00
4:00 AM,33.8,32.0,93,29.98,1.6,ESE,3.5,-,N/A,,Overcast,110,2012-11-17 03:00:00
5:00 AM,33.8,33.8,100,29.98,1.9,ESE,4.6,-,N/A,,Overcast,120,2012-11-17 04:00:00
6:00 AM,33.8,33.8,100,29.98,1.6,ESE,4.6,-,N/A,,Overcast,120,2012-11-17 05:00:00
7:00 AM,33.8,33.8,100,29.98,1.9,ESE,3.5,-,N/A,,Overcast,120,2012-11-17 06:00:00
7:30 AM,33.8,33.8,100,29.98,0.9,Variable,2.3,-,N/A,,Overcast,0,2012-11-17 06:30:00
8:00 AM,33.8,33.8,100,29.98,0.9,ESE,3.5,-,N/A,,Overcast,120,2012-11-17 07:00:00
8:30 AM,33.8,33.8,100,29.98,1.4,ESE,3.5,-,N/A,,Overcast,120,2012-11-17 07:30:00
9:00 AM,33.8,33.8,100,29.98,1.5,SE,3.5,-,N/A,,Overcast,130,2012-11-17 08:00:00
9:30 AM,33.8,33.8,100,29.98,1.6,SE,3.5,-,N/A,,Overcast,130,2012-11-17 08:30:00
10:00 AM,33.8,33.8,100,29.98,1.7,SE,3.5,-,N/A,,Overcast,130,2012-11-17 09:00:00
10:30 AM,33.8,33.8,100,29.98,-9999.0,ESE,4.6,-,N/A,,Overcast,120,2012-11-17 09:30:00
11:00 AM,33.8,33.8,100,29.95,-9999.0,ESE,5.8,-,N/A,,Overcast,110,2012-11-17 10:00:00
11:30 AM,35.6,33.8,93,29.95,2.5,ESE,3.5,-,N/A,,Overcast,120,2012-11-17 10:30:00
12:00 PM,35.6,33.8,93,29.95,2.8,ESE,4.6,-,N/A,,Overcast,120,2012-11-17 11:00:00
12:30 PM,35.6,33.8,93,29.95,2.8,SE,3.5,-,N/A,,Overcast,140,2012-11-17 11:30:00
1:00 PM,35.6,33.8,93,29.95,3.1,SE,4.6,-,N/A,,Overcast,140,2012-11-17 12:00:00
1:30 PM,35.6,33.8,93,29.92,3.1,SE,3.5,-,N/A,,Overcast,130,2012-11-17 12:30:00
2:00 PM,35.6,33.8,93,29.92,3.1,SSE,3.5,-,N/A,,Overcast,160,2012-11-17 13:00:00
2:30 PM,35.6,32.0,87,29.92,3.7,Variable,2.3,-,N/A,,Overcast,0,2012-11-17 13:30:00
3:00 PM,35.6,32.0,87,29.92,3.7,SSE,3.5,-,N/A,,Overcast,150,2012-11-17 14:00:00
3:30 PM,35.6,33.8,93,29.92,-9999.0,Variable,2.3,-,N/A,,Mostly Cloudy,0,2012-11-17 14:30:00
4:00 PM,35.6,32.0,87,29.92,3.1,Variable,2.3,-,N/A,,Mostly Cloudy,0,2012-11-17 15:00:00
4:30 PM,33.8,32.0,93,29.92,3.1,SSE,3.5,-,N/A,,Mostly Cloudy,150,2012-11-17 15:30:00
5:00 PM,33.8,32.0,93,29.92,4.3,SE,3.5,-,N/A,,Overcast,130,2012-11-17 16:00:00
5:30 PM,33.8,30.2,87,29.89,3.1,Variable,2.3,-,N/A,,Overcast,0,2012-11-17 16:30:00
6:00 PM,32.0,30.2,93,29.89,3.7,South,3.5,-,N/A,,Overcast,180,2012-11-17 17:00:00
6:30 PM,32.0,30.2,93,29.89,3.7,Variable,2.3,-,N/A,,Overcast,0,2012-11-17 17:30:00
7:00 PM,32.0,30.2,93,29.89,3.7,SE,3.5,-,N/A,,Overcast,140,2012-11-17 18:00:00
7:30 PM,32.0,30.2,93,29.89,4.3,Variable,2.3,-,N/A,,Overcast,0,2012-11-17 18:30:00
8:00 PM,32.0,30.2,93,29.89,5.0,Variable,2.3,-,N/A,,Overcast,0,2012-11-17 19:00:00
9:00 PM,30.2,30.2,100,29.92,4.3,South,3.5,-,N/A,,Overcast,180,2012-11-17 20:00:00
10:00 PM,30.2,30.2,100,29.89,3.7,Variable,2.3,-,N/A,,Overcast,0,2012-11-17 21:00:00
11:00 PM,30.2,28.4,93,29.89,4.3,SW,3.5,-,N/A,,Overcast,220,2012-11-17 22:00:00